Location: Oshawa
(43.9000°N, 78.8670°W)
Time: 07:12:18
(UTC-04:00)

Cosmos 1408 Rocket - Visible Passes

Search period start: 24 June 2018 00:00
Search period end: 04 July 2018 00:00
Orbit: 602 x 630 km, 82.6° (Epoch: 24 June)

Date Brightness Start Highest point End Pass type
(mag) Time Alt. Az. Time Alt. Az. Time Alt. Az.
24 Jun 3.5 00:07:39 50° SSW 00:08:47 83° W 00:13:16 10° N visible
24 Jun 5.3 22:46:41 15° ESE 22:47:52 17° E 22:50:44 10° NE visible
25 Jun 4.4 00:23:45 33° SW 00:25:16 45° WNW 00:29:35 10° N visible
25 Jun 4.7 23:02:45 25° ESE 23:04:03 29° E 23:07:56 10° NNE visible
26 Jun 5.3 00:39:50 19° WSW 00:41:50 26° WNW 00:45:37 10° NNW visible
26 Jun 3.8 23:18:49 35° SSE 23:20:21 52° E 23:24:43 10° NNE visible
27 Jun 6.0 00:55:53 10° WSW 00:58:30 16° WNW 01:01:14 10° NNW visible
27 Jun 3.5 23:34:51 35° S 23:36:44 86° W 23:41:14 10° N visible
28 Jun 5.4 22:13:48 13° ESE 22:15:50 16° E 22:18:37 10° NE visible
28 Jun 4.4 23:50:51 24° SW 23:53:12 47° WNW 23:57:33 10° N visible
29 Jun 4.7 22:29:47 19° SE 22:32:02 28° E 22:35:51 10° NNE visible
30 Jun 5.4 00:06:50 14° SW 00:09:46 27° WNW 00:13:37 10° NNW visible
30 Jun 3.9 22:45:43 22° SSE 22:48:19 50° E 22:52:39 10° NNE visible
01 Jul 6.1 00:23:37 10° WSW 00:26:26 16° WNW 00:29:16 10° NNW visible
01 Jul 3.5 23:01:39 20° S 23:04:41 89° WNW 23:09:11 10° N visible
02 Jul 5.4 21:41:07 10° ESE 21:43:48 16° E 21:46:30 10° NE visible
02 Jul 4.4 23:17:31 14° SSW 23:21:09 49° WNW 23:25:31 10° N visible
03 Jul 4.7 21:56:18 10° SE 22:00:00 27° E 22:03:47 10° NNE visible
03 Jul 5.4 23:33:52 10° SW 23:37:43 28° WNW 23:41:35 10° NNW visible
